Retour au catalogue

BREEZE-M R/B

ActifHEO
NORAD 40365·ROCKET BODY·🇷🇺 Russia

Lancé Dec 27, 2014 depuis Baikonur Cosmodrome

Loading…

Prochains Passages (prochaines 24 heures)

TLE

FraisSource: Space-Track

Époque: Sep 13, 2026, 11:51 UTC

1 40365U 14089B   26256.49410460 -.00000156  00000-0  00000-0 0  9992
2 40365  23.7160 314.1313 6071463  20.3626 356.0824  2.19523698 93769

Suivez BREEZE-M R/B en temps réel avec AllMySat

Download on the App Store